Simultaneous Nadir Overpasses (SNOs) Predictions

Prediction of SNOs between LANDSAT-8 and METOP-A Satellite Orbit:

Table of predicted SNOs for the next 14.0 days since TLE Epoch: 11/26/2016
Index Date (LANDSAT-8) Time (LANDSAT-8) Lat,Lon (LANDSAT-8) SZA (LANDSAT-8 ) Date (METOP-A) Time (METOP-A) Lat,Lon (METOP-A) SZA (METOP-A ) Distance(km) Time Diff (sec)
1 11/27/2016 09:23:00 -81.12,-100.89 75.42 11/27/2016 09:22:20 -81.12,-101.06 75.46 3.06 40
2 11/27/2016 10:12:25 81.15, 67.22 104.66 11/27/2016 10:12:58 81.15, 67.15 104.66 1.42 33
3 11/30/2016 04:57:15 -81.12, -34.45 74.97 11/30/2016 04:56:41 -81.12, -34.42 74.98 0.52 34
4 11/30/2016 05:46:40 81.15, 133.64 105.10 11/30/2016 05:47:19 81.15, 133.76 105.13 2.06 39
5 12/03/2016 00:31:30 -81.12, 31.94 74.59 12/03/2016 00:31:03 -81.12, 31.82 74.61 2.18 27
6
